Location: Prosper
(33.2362°N, 96.8011°W)
Time: 02:04:06
(UTC+00:00)

Okean O Rocket - Pass Details

Date: 03 December 2021
Orbit: 621 x 645 km, 98.2° (Epoch: 17 January)

Event Time Altitude Azimuth Distance (km) Brightness Sun altitude
Rises 23:50:42 0° 127° (SE) 2,937 4.7 -6.8°
Reaches altitude 10° 23:53:34 10° 107° (ESE) 2,035 3.8 -7.3°
Maximum altitude 23:56:22 17° 68° (ENE) 1,639 3.1 -7.9°
Drops below altitude 10° 23:59:11 10° 28° (NNE) 2,046 3.8 -8.4°
Sets 00:02:04 0° 9° (N) 2,961 4.8 -9.0°
